Location: Quebec
(46.8000°N, 71.2500°W)
Time: 14:56:55
(UTC-04:00)

Tiangong 1 - Pass Details

Date: 16 October 2017
Orbit: 292 x 319 km, 42.8° (Epoch: 23 October)

Event Time Altitude Azimuth Distance (km) Brightness Sun altitude
Rises 18:51:53 0° 264° (W) 2,049 7.0 -10.4°
Reaches altitude 10° 18:54:55 10° 227° (SW) 1,208 4.3 -10.9°
Maximum altitude 18:55:50 11° 207° (SSW) 1,138 3.8 -11.0°
Drops below altitude 10° 18:56:45 10° 187° (S) 1,200 3.7 -11.2°
Enters shadow 18:59:00 - 155° (SSE) 1,770 4.2 -11.6°
